| time (UTC) | temp C | wind direction | speed KPH | gust KPH | rain 1hr cm | rain 24hr cm | rain mn cm | humidity % | barometer mb |
| 20260504014638 | 12 | 262 | 17.7 | 20.9 | 0.00 | 0.18 | 0.18 | 64 | 1007.5 |
| 20260504014136 | 12 | 310 | 14.5 | 16.1 | 0.00 | 0.18 | 0.18 | 64 | 1007.1 |
| 20260504013634 | 12 | 214 | 8.0 | 9.7 | 0.00 | 0.18 | 0.18 | 65 | 1007.5 |
| 20260504013130 | -17 | 0.0 | 0.0 | 0.00 | 0.00 | 0.00 | 1007.1 | ||
| 20260504012627 | -17 | 0.0 | 0.0 | 0.00 | 0.00 | 0.00 | 1007.5 | ||
| 20260504012125 | -17 | 0.0 | 0.0 | 0.00 | 0.00 | 0.00 | 1007.1 | ||
| 20260504011622 | -17 | 0.0 | 0.0 | 0.00 | 0.00 | 0.00 | 1007.1 | ||
| 20260504011118 | -17 | 0.0 | 0.0 | 0.00 | 0.00 | 0.00 | 1007.1 | ||
| 20260504010614 | -17 | 0.0 | 0.0 | 0.00 | 0.00 | 0.00 | 1007.5 | ||
| 20260504010110 | -17 | 0.0 | 0.0 | 0.00 | 0.00 | 0.00 | 1007.1 | ||
| 20260504005607 | -17 | 0.0 | 0.0 | 0.00 | 0.00 | 0.00 | 1007.5 | ||
| 20260504005104 | -17 | 0.0 | 0.0 | 0.00 | 0.00 | 0.00 | 1007.1 | ||
| 20260504004602 | -17 | 0.0 | 0.0 | 0.00 | 0.00 | 0.00 | 1007.1 | ||
| 20260504004059 | -17 | 0.0 | 0.0 | 0.00 | 0.00 | 0.00 | 1007.1 | ||
| 20260504003555 | -17 | 0.0 | 0.0 | 0.00 | 0.00 | 0.00 | 1007.5 | ||
| 20260504003052 | -17 | 0.0 | 0.0 | 0.00 | 0.00 | 0.00 | 1007.1 | ||
| 20260504002549 | -17 | 0.0 | 0.0 | 0.00 | 0.00 | 0.00 | 1007.1 | ||
| 20260504002047 | -17 | 0.0 | 0.0 | 0.00 | 0.00 | 0.00 | 1007.5 | ||
| 20260504001544 | -17 | 0.0 | 0.0 | 0.00 | 0.00 | 0.00 | 1007.5 | ||
| 20260504001040 | -17 | 0.0 | 0.0 | 0.00 | 0.00 | 0.00 | 1007.5 | ||
| 20260504000537 | 9 | 275 | 4.8 | 4.8 | 0.00 | 0.18 | 0.18 | 98 | 1007.5 |
| 20260504000035 | 9 | 275 | 4.8 | 4.8 | 0.05 | 0.18 | 0.18 | 98 | 1007.1 |
| 20260503235533 | 9 | 275 | 4.8 | 4.8 | 0.05 | 0.18 | 0.18 | 98 | 1007.5 |
| 20260503235029 | 9 | 195 | 1.6 | 3.2 | 0.05 | 0.18 | 0.18 | 99 | 1007.5 |
| 20260503234527 | 9 | 195 | 1.6 | 3.2 | 0.05 | 0.18 | 0.18 | 99 | 1007.5 |
| 20260503234025 | 9 | 220 | 3.2 | 3.2 | 0.03 | 0.15 | 0.15 | 99 | 1007.5 |
| 20260503233521 | 9 | 223 | 1.6 | 1.6 | 0.03 | 0.15 | 0.15 | 99 | 1008.1 |
| 20260503233017 | 9 | 209 | 1.6 | 3.2 | 0.03 | 0.15 | 0.15 | 99 | 1007.8 |
| 20260503232514 | 9 | 228 | 0.0 | 0.0 | 0.03 | 0.15 | 0.15 | 99 | 1007.8 |
| 20260503232012 | 9 | 230 | 0.0 | 0.0 | 0.03 | 0.15 | 0.15 | 99 | 1008.1 |
| 20260503231510 | 9 | 231 | 1.6 | 3.2 | 0.03 | 0.15 | 0.15 | 98 | 1008.1 |
| 20260503231006 | 9 | 233 | 0.0 | 0.0 | 0.03 | 0.15 | 0.15 | 98 | 1008.1 |
| 20260503230503 | 9 | 233 | 0.0 | 0.0 | 0.03 | 0.15 | 0.15 | 97 | 1008.5 |
| 20260503230000 | 9 | 233 | 0.0 | 0.0 | 0.13 | 0.13 | 0.13 | 97 | 1008.5 |
| 20260503225457 | 9 | 233 | 0.0 | 0.0 | 0.13 | 0.13 | 0.13 | 96 | 1008.5 |
| 20260503224952 | 9 | 233 | 1.6 | 1.6 | 0.13 | 0.13 | 0.13 | 95 | 1008.1 |
| 20260503224449 | 9 | 252 | 3.2 | 3.2 | 0.13 | 0.13 | 0.13 | 94 | 1008.5 |
| 20260503223947 | 9 | 222 | 3.2 | 3.2 | 0.10 | 0.10 | 0.10 | 93 | 1008.5 |
| 20260503223445 | 10 | 243 | 1.6 | 1.6 | 0.10 | 0.10 | 0.10 | 92 | 1008.5 |
| 20260503222940 | 10 | 328 | 6.4 | 8.0 | 0.08 | 0.08 | 0.08 | 91 | 1008.5 |
| 20260503222439 | 10 | 247 | 4.8 | 4.8 | 0.05 | 0.05 | 0.05 | 89 | 1008.5 |
| 20260503221937 | 10 | 252 | 4.8 | 8.0 | 0.05 | 0.05 | 0.05 | 88 | 1008.5 |
| 20260503221435 | 10 | 283 | 8.0 | 9.7 | 0.03 | 0.03 | 0.03 | 87 | 1008.5 |
| 20260503220931 | 11 | 305 | 11.3 | 14.5 | 0.03 | 0.03 | 0.03 | 85 | 1008.5 |
| 20260503220428 | 11 | 225 | 8.0 | 12.9 | 0.00 | 0.00 | 0.00 | 84 | 1008.5 |
| 20260503215925 | 11 | 273 | 12.9 | 16.1 | 0.00 | 0.00 | 0.00 | 81 | 1008.5 |
| 20260503215422 | 12 | 263 | 16.1 | 22.5 | 0.00 | 0.00 | 0.00 | 78 | 1008.5 |
| 20260503214920 | 12 | 283 | 17.7 | 22.5 | 0.00 | 0.00 | 0.00 | 72 | 1008.1 |
| 20260503214417 | 13 | 274 | 16.1 | 17.7 | 0.00 | 0.00 | 0.00 | 68 | 1008.1 |
| 20260503213914 | 13 | 265 | 6.4 | 9.7 | 0.00 | 0.00 | 0.00 | 67 | 1007.8 |
| 20260503213412 | 13 | 279 | 11.3 | 12.9 | 0.00 | 0.00 | 0.00 | 65 | 1007.5 |
| 20260503212908 | 13 | 273 | 12.9 | 12.9 | 0.00 | 0.00 | 0.00 | 64 | 1007.5 |
| 20260503212406 | 13 | 225 | 4.8 | 8.0 | 0.00 | 0.00 | 0.00 | 64 | 1007.5 |
| 20260503211903 | 13 | 245 | 8.0 | 11.3 | 0.00 | 0.00 | 0.00 | 64 | 1007.5 |
| 20260503211400 | 12 | 277 | 14.5 | 22.5 | 0.00 | 0.00 | 0.00 | 63 | 1007.5 |
| 20260503210855 | 12 | 220 | 6.4 | 9.7 | 0.00 | 0.00 | 0.00 | 64 | 1007.5 |
| 20260503210353 | 12 | 236 | 6.4 | 8.0 | 0.00 | 0.00 | 0.00 | 64 | 1007.5 |
| 20260503205847 | 12 | 242 | 4.8 | 4.8 | 0.00 | 0.00 | 0.00 | 64 | 1007.5 |
| 20260503205344 | 12 | 249 | 6.4 | 11.3 | 0.00 | 0.00 | 0.00 | 66 | 1007.5 |
| 20260503204840 | 12 | 232 | 4.8 | 11.3 | 0.00 | 0.00 | 0.00 | 64 | 1007.8 |
| 20260503204338 | 12 | 250 | 9.7 | 14.5 | 0.00 | 0.00 | 0.00 | 64 | 1007.5 |
| 20260503203835 | 12 | 217 | 11.3 | 14.5 | 0.00 | 0.00 | 0.00 | 64 | 1007.8 |
| 20260503203332 | 12 | 258 | 14.5 | 16.1 | 0.00 | 0.00 | 0.00 | 64 | 1007.5 |
| 20260503202829 | 12 | 249 | 8.0 | 12.9 | 0.00 | 0.00 | 0.00 | 64 | 1007.8 |
| 20260503202328 | 13 | 261 | 9.7 | 11.3 | 0.00 | 0.00 | 0.00 | 64 | 1007.8 |
| 20260503201826 | 13 | 199 | 8.0 | 11.3 | 0.00 | 0.00 | 0.00 | 64 | 1007.8 |
| 20260503201322 | 13 | 226 | 4.8 | 4.8 | 0.00 | 0.00 | 0.00 | 64 | 1007.8 |
| 20260503200820 | 13 | 189 | 4.8 | 8.0 | 0.00 | 0.00 | 0.00 | 65 | 1007.8 |
| 20260503200315 | 13 | 261 | 8.0 | 11.3 | 0.00 | 0.00 | 0.00 | 64 | 1007.8 |
| 20260503195813 | 13 | 261 | 4.8 | 12.9 | 0.00 | 0.00 | 0.00 | 62 | 1008.1 |
| 20260503195309 | 13 | 236 | 4.8 | 9.7 | 0.00 | 0.00 | 0.00 | 63 | 1008.1 |
| 20260503194807 | 13 | 255 | 11.3 | 17.7 | 0.00 | 0.00 | 0.00 | 60 | 1008.5 |
| 20260503194302 | 13 | 227 | 3.2 | 4.8 | 0.00 | 0.00 | 0.00 | 61 | 1008.1 |
| 20260503193759 | 13 | 188 | 4.8 | 4.8 | 0.00 | 0.00 | 0.00 | 59 | 1008.5 |
| 20260503193255 | 14 | 189 | 8.0 | 9.7 | 0.00 | 0.00 | 0.00 | 58 | 1008.5 |
| 20260503192751 | 15 | 231 | 4.8 | 8.0 | 0.00 | 0.00 | 0.00 | 58 | 1008.5 |
| 20260503192246 | 15 | 229 | 6.4 | 11.3 | 0.00 | 0.00 | 0.00 | 59 | 1008.5 |
| 20260503191743 | 13 | 248 | 4.8 | 4.8 | 0.00 | 0.00 | 0.00 | 58 | 1008.8 |
| 20260503191240 | 13 | 199 | 3.2 | 3.2 | 0.00 | 0.00 | 0.00 | 59 | 1008.8 |
| 20260503190737 | 13 | 236 | 4.8 | 4.8 | 0.00 | 0.00 | 0.00 | 59 | 1009.2 |
| 20260503190234 | 13 | 253 | 8.0 | 14.5 | 0.00 | 0.00 | 0.00 | 59 | 1008.8 |
| 20260503185731 | 13 | 218 | 8.0 | 14.5 | 0.00 | 0.00 | 0.00 | 57 | 1009.2 |
| 20260503185226 | 13 | 211 | 8.0 | 11.3 | 0.00 | 0.00 | 0.00 | 57 | 1009.2 |
| 20260503184721 | 13 | 227 | 6.4 | 8.0 | 0.00 | 0.00 | 0.00 | 56 | 1009.2 |
| 20260503184218 | 13 | 221 | 9.7 | 11.3 | 0.00 | 0.00 | 0.00 | 58 | 1009.2 |
| 20260503183714 | 13 | 278 | 8.0 | 9.7 | 0.00 | 0.00 | 0.00 | 56 | 1009.2 |
| 20260503183211 | 13 | 212 | 4.8 | 8.0 | 0.00 | 0.00 | 0.00 | 54 | 1009.5 |
| 20260503182710 | 13 | 242 | 8.0 | 11.3 | 0.00 | 0.00 | 0.00 | 53 | 1009.5 |
| 20260503182208 | 13 | 225 | 6.4 | 9.7 | 0.00 | 0.00 | 0.00 | 54 | 1009.5 |
| 20260503181704 | 13 | 217 | 8.0 | 9.7 | 0.00 | 0.00 | 0.00 | 53 | 1009.5 |
| 20260503181201 | 13 | 269 | 11.3 | 17.7 | 0.00 | 0.00 | 0.00 | 56 | 1009.8 |
| 20260503180658 | 12 | 253 | 11.3 | 12.9 | 0.00 | 0.00 | 0.00 | 57 | 1009.8 |
| 20260503180156 | 13 | 225 | 17.7 | 20.9 | 0.00 | 0.00 | 0.00 | 56 | 1010.2 |
| 20260503175653 | 12 | 253 | 9.7 | 16.1 | 0.00 | 0.00 | 0.00 | 56 | 1010.2 |
| 20260503175150 | 12 | 281 | 14.5 | 16.1 | 0.00 | 0.00 | 0.00 | 57 | 1010.2 |
| 20260503174646 | 12 | 246 | 20.9 | 25.7 | 0.00 | 0.00 | 0.00 | 56 | 1010.2 |
| 20260503174144 | 12 | 221 | 8.0 | 9.7 | 0.00 | 0.00 | 0.00 | 59 | 1010.2 |
| 20260503173639 | 11 | 256 | 14.5 | 17.7 | 0.00 | 0.00 | 0.00 | 57 | 1010.5 |
| 20260503173135 | 12 | 264 | 11.3 | 12.9 | 0.00 | 0.00 | 0.00 | 55 | 1010.5 |
| 20260503172632 | 12 | 262 | 16.1 | 17.7 | 0.00 | 0.00 | 0.00 | 51 | 1010.2 |
| 20260503172130 | 12 | 233 | 8.0 | 11.3 | 0.00 | 0.00 | 0.00 | 53 | 1010.5 |
| 20260503171626 | 12 | 246 | 4.8 | 11.3 | 0.00 | 0.00 | 0.00 | 53 | 1010.5 |
| 20260503171123 | 12 | 237 | 9.7 | 12.9 | 0.00 | 0.00 | 0.00 | 53 | 1010.5 |
| 20260503170621 | 12 | 251 | 9.7 | 11.3 | 0.00 | 0.00 | 0.00 | 50 | 1010.8 |
| 20260503170117 | 12 | 261 | 9.7 | 14.5 | 0.00 | 0.00 | 0.00 | 56 | 1010.8 |
| 20260503151012 | 10 | 296 | 12.9 | 14.5 | 0.00 | 0.00 | 0.00 | 56 | 1012.0 |
| 20260503150509 | 10 | 215 | 6.4 | 9.7 | 0.00 | 0.00 | 0.00 | 59 | 1012.0 |
| 20260503131402 | 8 | 238 | 4.8 | 8.0 | 0.00 | 0.00 | 0.00 | 74 | 1012.6 |
| 20260503130859 | 8 | 290 | 9.7 | 11.3 | 0.00 | 0.00 | 0.00 | 73 | 1012.3 |
| 20260503130356 | 8 | 268 | 4.8 | 9.7 | 0.00 | 0.00 | 0.00 | 74 | 1012.3 |
| 20260503110755 | 2 | 219 | 0.0 | 1.6 | 0.00 | 0.00 | 0.00 | 85 | 1012.6 |
| 20260503110252 | 2 | 225 | 0.0 | 0.0 | 0.00 | 0.00 | 0.00 | 85 | 1012.6 |
| 20260503100219 | 0 | 239 | 0.0 | 0.0 | 0.00 | 0.00 | 0.00 | 87 | 1012.6 |
| 20260503090138 | -1 | 238 | 0.0 | 0.0 | 0.00 | 0.00 | 0.00 | 93 | 1013.0 |
| 20260503081608 | -1 | 241 | 0.0 | 0.0 | 0.00 | 0.00 | 0.00 | 93 | 1013.0 |
| 20260503081105 | 0 | 241 | 0.0 | 0.0 | 0.00 | 0.00 | 0.00 | 93 | 1013.3 |
| 20260503080601 | 0 | 241 | 0.0 | 0.0 | 0.00 | 0.00 | 0.00 | 92 | 1013.0 |
| 20260503072540 | 0 | 241 | 0.0 | 0.0 | 0.00 | 0.00 | 0.00 | 90 | 1013.0 |
| 20260503072037 | 0 | 241 | 0.0 | 0.0 | 0.00 | 0.00 | 0.00 | 91 | 1013.0 |
| 20260503071534 | 0 | 241 | 0.0 | 0.0 | 0.00 | 0.00 | 0.00 | 91 | 1013.0 |
| 20260503071031 | 0 | 242 | 0.0 | 0.0 | 0.00 | 0.00 | 0.00 | 91 | 1013.3 |
| 20260503070527 | 0 | 241 | 0.0 | 0.0 | 0.00 | 0.00 | 0.00 | 91 | 1013.0 |
| 20260503054945 | 1 | 227 | 0.0 | 0.0 | 0.00 | 0.00 | 0.00 | 93 | 1013.3 |
| 20260503054441 | 1 | 227 | 0.0 | 0.0 | 0.00 | 0.00 | 0.00 | 93 | 1013.3 |
| 20260503053939 | 1 | 227 | 0.0 | 0.0 | 0.00 | 0.00 | 0.00 | 93 | 1013.3 |
| 20260503053437 | 1 | 227 | 0.0 | 0.0 | 0.00 | 0.00 | 0.00 | 93 | 1013.3 |
| 20260503052933 | 1 | 227 | 0.0 | 0.0 | 0.00 | 0.00 | 0.00 | 93 | 1013.3 |
| 20260503052431 | 1 | 227 | 0.0 | 0.0 | 0.00 | 0.00 | 0.00 | 93 | 1013.3 |
| 20260503051927 | 1 | 227 | 0.0 | 0.0 | 0.00 | 0.00 | 0.00 | 93 | 1013.7 |
| 20260503051423 | 1 | 227 | 0.0 | 0.0 | 0.00 | 0.00 | 0.00 | 93 | 1013.7 |
| 20260503050920 | 1 | 227 | 0.0 | 0.0 | 0.00 | 0.00 | 0.00 | 93 | 1013.7 |
| 20260503050416 | 1 | 227 | 0.0 | 0.0 | 0.00 | 0.00 | 0.00 | 93 | 1013.7 |
| 20260503045914 | 1 | 227 | 0.0 | 0.0 | 0.00 | 0.00 | 0.00 | 93 | 1013.7 |
| 20260503045411 | 1 | 227 | 0.0 | 0.0 | 0.00 | 0.00 | 0.00 | 92 | 1013.7 |
| 20260503044908 | 1 | 227 | 0.0 | 0.0 | 0.00 | 0.00 | 0.00 | 92 | 1014.0 |
| 20260503044405 | 1 | 227 | 0.0 | 0.0 | 0.00 | 0.00 | 0.00 | 91 | 1013.7 |
| 20260503043902 | 1 | 227 | 0.0 | 0.0 | 0.00 | 0.00 | 0.00 | 91 | 1013.7 |
| 20260503043359 | 1 | 227 | 0.0 | 0.0 | 0.00 | 0.00 | 0.00 | 90 | 1013.7 |
| 20260503042855 | 1 | 227 | 0.0 | 0.0 | 0.00 | 0.00 | 0.00 | 90 | 1013.7 |
| 20260503042351 | 1 | 227 | 0.0 | 0.0 | 0.00 | 0.00 | 0.00 | 90 | 1013.7 |
| 20260503041848 | 1 | 227 | 0.0 | 0.0 | 0.00 | 0.00 | 0.00 | 90 | 1014.0 |
| 20260503041345 | 1 | 227 | 0.0 | 0.0 | 0.00 | 0.00 | 0.00 | 89 | 1014.0 |
| 20260503040843 | 1 | 227 | 0.0 | 0.0 | 0.00 | 0.00 | 0.00 | 89 | 1014.0 |
| 20260503040340 | 1 | 227 | 0.0 | 0.0 | 0.00 | 0.00 | 0.00 | 88 | 1014.0 |
| 20260503035837 | 1 | 227 | 0.0 | 0.0 | 0.00 | 0.00 | 0.00 | 88 | 1014.0 |
| 20260503035334 | 2 | 227 | 0.0 | 0.0 | 0.00 | 0.00 | 0.00 | 88 | 1014.0 |
| 20260503034831 | 2 | 227 | 0.0 | 0.0 | 0.00 | 0.00 | 0.00 | 87 | 1014.0 |
| 20260503034329 | 2 | 227 | 0.0 | 0.0 | 0.00 | 0.00 | 0.00 | 87 | 1014.0 |
| 20260503033826 | 2 | 227 | 0.0 | 0.0 | 0.00 | 0.00 | 0.00 | 85 | 1014.0 |
| 20260503033323 | 2 | 227 | 0.0 | 0.0 | 0.00 | 0.00 | 0.00 | 85 | 1014.0 |
| 20260503032821 | 2 | 227 | 0.0 | 0.0 | 0.00 | 0.00 | 0.00 | 84 | 1014.0 |
| 20260503032320 | 2 | 227 | 0.0 | 0.0 | 0.00 | 0.00 | 0.00 | 84 | 1014.0 |
| 20260503031817 | 2 | 227 | 0.0 | 0.0 | 0.00 | 0.00 | 0.00 | 83 | 1014.0 |
| 20260503031315 | 3 | 227 | 0.0 | 0.0 | 0.00 | 0.00 | 0.00 | 82 | 1014.0 |
| 20260503030810 | 3 | 227 | 0.0 | 0.0 | 0.00 | 0.00 | 0.00 | 81 | 1014.0 |
| 20260503030307 | 3 | 227 | 0.0 | 0.0 | 0.00 | 0.00 | 0.00 | 81 | 1014.0 |
| 20260503025804 | 4 | 227 | 0.0 | 0.0 | 0.00 | 0.00 | 0.00 | 80 | 1014.0 |
| 20260503025304 | 4 | 226 | 0.0 | 1.6 | 0.00 | 0.00 | 0.00 | 80 | 1014.0 |
| 20260503024758 | 4 | 229 | 0.0 | 0.0 | 0.00 | 0.00 | 0.00 | 81 | 1014.0 |
| 20260503024255 | 4 | 230 | 0.0 | 0.0 | 0.00 | 0.00 | 0.00 | 80 | 1014.0 |
| 20260503023752 | 4 | 230 | 0.0 | 0.0 | 0.00 | 0.00 | 0.00 | 80 | 1014.3 |
| 20260503023249 | 4 | 230 | 0.0 | 0.0 | 0.00 | 0.00 | 0.00 | 79 | 1014.3 |
| 20260503022745 | 4 | 230 | 0.0 | 0.0 | 0.00 | 0.00 | 0.00 | 80 | 1014.3 |
| 20260503022240 | 4 | 230 | 0.0 | 0.0 | 0.00 | 0.00 | 0.00 | 80 | 1014.0 |
| 20260503021737 | 4 | 230 | 0.0 | 0.0 | 0.00 | 0.00 | 0.00 | 79 | 1014.3 |
| 20260503021233 | 4 | 230 | 0.0 | 0.0 | 0.00 | 0.00 | 0.00 | 79 | 1014.3 |
| 20260503020731 | 4 | 230 | 0.0 | 0.0 | 0.00 | 0.00 | 0.00 | 79 | 1014.3 |
| 20260503020228 | 4 | 232 | 0.0 | 0.0 | 0.00 | 0.00 | 0.00 | 78 | 1014.0 |
| 20260503015724 | 5 | 232 | 0.0 | 0.0 | 0.00 | 0.00 | 0.00 | 78 | 1014.3 |
| 20260503015221 | 5 | 237 | 1.6 | 1.6 | 0.00 | 0.00 | 0.00 | 77 | 1014.3 |